Weather History for KGBG - March, 2014

Change the Weather History Date:

Sunday, March 30, 2014

  Actual Average Record
Temperature  
Mean Temperature 46 °F -  
Max Temperature 61 °F 53 °F 81 °F (1986)
Min Temperature 30 °F 32 °F 12 °F (1969)
Degree Days  
Heating Degree Days 20    
Moisture  
Dew Point 35 °F    
Average Humidity 70    
Maximum Humidity 96    
Minimum Humidity 41    
Precipitation  
Precipitation 0.00 in - - ()
Sea Level Pressure  
Sea Level Pressure 30.12 in    
Wind  
Wind Speed 7 mph (SSE)    
Max Wind Speed 16 mph    
Max Gust Speed 24 mph    
Visibility 10 miles    
Events      
Averages and records for this station are not official NWS values.
T = Trace of Precipitation, MM = Missing Value Source: NWS Daily Summary

Daily Weather History Graph

Daily Weather History Graph

Search for Another Location

Airport or City:

Trip Planner

Search our weather history database for the weather conditions in past years. The results will help you decide how hot, cold, wet, or windy it might be!

Date:

Astronomy

Mar. 30, 2014 Rise Set
Actual Time 6:48 AM CDT 7:24 PM CDT
Civil Twilight 6:20 AM CDT 7:52 PM CDT
Nautical Twilight 5:48 AM CDT 8:24 PM CDT
Astronomical Twilight 5:14 AM CDT 8:58 PM CDT
Moon 6:34 AM CDT (3/30) 7:37 PM CDT (3/30)
Length of Visible Light 13h 31m
Length of Day
12h 36m
Waning Crescent, 0% of the Moon is Illuminated
Mar 30
Waning Crescent
Mar 30
New
Apr 7
First Quarter
Apr 15
Full
Apr 22
Last Quarter

Hourly Weather History & Observations

Time (CDT) Temp. Windchill Dew Point Humidity Pressure Visibility Wind Dir Wind Speed Gust Speed Precip Events Conditions
12:15 AM 31.1 °F 27.7 °F 29.7 °F 94% 30.24 in 10.0 mi SE 3.5 mph - N/A   Clear
12:35 AM 32.9 °F 29.8 °F 30.2 °F 90% 30.24 in 10.0 mi SE 3.5 mph - N/A   Clear
12:55 AM 33.3 °F 28.9 °F 30.2 °F 89% 30.24 in 10.0 mi SE 4.6 mph - N/A   Clear
1:15 AM 32.9 °F 27.5 °F 29.8 °F 88% 30.25 in 10.0 mi SE 5.8 mph - N/A   Clear
1:35 AM 32.9 °F 27.5 °F 30.0 °F 89% 30.24 in 10.0 mi SE 5.8 mph - N/A   Clear
1:55 AM 33.3 °F 28.9 °F 30.4 °F 89% 30.24 in 10.0 mi SSE 4.6 mph - N/A   Clear
2:15 AM 32.0 °F 28.7 °F 29.3 °F 90% 30.24 in 10.0 mi SSE 3.5 mph - N/A   Clear
2:35 AM 32.0 °F 28.7 °F 29.8 °F 92% 30.23 in 10.0 mi SE 3.5 mph - N/A   Clear
2:55 AM 31.3 °F 25.6 °F 29.7 °F 94% 30.21 in 10.0 mi SE 5.8 mph - N/A   Clear
3:15 AM 32.0 °F 26.4 °F 30.0 °F 92% 30.20 in 10.0 mi SE 5.8 mph - N/A   Clear
3:35 AM 32.0 °F - 30.2 °F 93% 30.20 in 10.0 mi Calm Calm - N/A   Clear
3:55 AM 31.8 °F 28.5 °F 29.8 °F 92% 30.20 in 10.0 mi SE 3.5 mph - N/A   Clear
4:15 AM 31.1 °F 25.4 °F 29.3 °F 93% 30.20 in 10.0 mi ESE 5.8 mph - N/A   Clear
4:35 AM 31.5 °F 25.8 °F 29.7 °F 93% 30.20 in 10.0 mi SE 5.8 mph - N/A   Clear
4:55 AM 31.8 °F 27.3 °F 29.8 °F 92% 30.20 in 10.0 mi SE 4.6 mph - N/A   Clear
5:15 AM 32.0 °F 26.4 °F 29.8 °F 92% 30.20 in 10.0 mi SE 5.8 mph - N/A   Clear
5:35 AM 31.3 °F 25.6 °F 29.7 °F 94% 30.20 in 10.0 mi SSE 5.8 mph - N/A   Clear
5:55 AM 30.9 °F 26.2 °F 29.7 °F 95% 30.21 in 10.0 mi SSE 4.6 mph - N/A   Clear
6:15 AM 31.1 °F 25.4 °F 29.7 °F 94% 30.20 in 10.0 mi SE 5.8 mph - N/A   Clear
6:35 AM 31.8 °F - 29.8 °F 92% 30.21 in 10.0 mi Calm Calm - N/A   Clear
6:55 AM 30.7 °F 26.0 °F 29.3 °F 94% 30.21 in 10.0 mi SE 4.6 mph - N/A   Clear
7:15 AM 30.4 °F 26.9 °F 29.1 °F 95% 30.22 in 7.0 mi ESE 3.5 mph - N/A   Clear
7:35 AM 30.9 °F 26.2 °F 30.0 °F 96% 30.22 in 7.0 mi ESE 4.6 mph - N/A   Clear
7:55 AM 32.0 °F 28.7 °F 31.1 °F 96% 30.22 in 10.0 mi SE 3.5 mph - N/A   Clear
8:15 AM 34.9 °F 29.9 °F 32.0 °F 89% 30.23 in 10.0 mi SSE 5.8 mph - N/A   Clear
8:35 AM 35.6 °F 29.2 °F 32.2 °F 87% 30.23 in 10.0 mi SSE 8.1 mph - N/A   Clear
8:55 AM 36.7 °F 29.9 °F 32.9 °F 86% 30.22 in 10.0 mi SSE 9.2 mph - N/A   Clear
9:15 AM 38.7 °F 32.4 °F 34.0 °F 83% 30.21 in 10.0 mi SSE 9.2 mph - N/A   Clear
9:35 AM 40.8 °F 34.5 °F 34.9 °F 79% 30.21 in 10.0 mi SSE 10.4 mph 16.1 mph N/A   Clear
9:55 AM 42.6 °F 35.6 °F 35.6 °F 76% 30.21 in 10.0 mi South 13.8 mph 20.7 mph N/A   Clear
10:15 AM 44.4 °F 38.6 °F 35.8 °F 72% 30.20 in 10.0 mi SSE 11.5 mph - N/A   Clear
10:35 AM 46.4 °F 41.1 °F 36.1 °F 67% 30.19 in 10.0 mi SSE 11.5 mph 20.7 mph N/A   Clear
10:55 AM 47.8 °F - 35.8 °F 63% 30.19 in 10.0 mi SSE 16.1 mph 21.9 mph N/A   Clear
11:15 AM 49.5 °F - 37.4 °F 63% 30.18 in 10.0 mi SSE 12.7 mph 16.1 mph N/A   Clear
11:35 AM 50.4 °F - 37.0 °F 60% 30.17 in 10.0 mi SSE 13.8 mph 19.6 mph N/A   Clear
11:55 AM 52.0 °F - 37.6 °F 58% 30.16 in 10.0 mi SSE 13.8 mph 19.6 mph N/A   Clear
12:15 PM 53.1 °F - 37.2 °F 55% 30.15 in 10.0 mi SSE 13.8 mph - N/A   Clear
12:35 PM 55.0 °F - 37.4 °F 51% 30.14 in 10.0 mi SSE 10.4 mph 19.6 mph N/A   Clear
12:55 PM 55.8 °F - 37.2 °F 50% 30.14 in 10.0 mi South 13.8 mph 18.4 mph N/A   Clear
1:15 PM 56.8 °F - 36.3 °F 46% 30.13 in 10.0 mi SSE 15.0 mph 20.7 mph N/A   Clear
1:35 PM 56.8 °F - 36.7 °F 47% 30.12 in 10.0 mi South 13.8 mph 24.2 mph N/A   Clear
1:55 PM 57.9 °F - 37.6 °F 47% 30.10 in 10.0 mi SSE 15.0 mph 20.7 mph N/A   Clear
2:15 PM 59.4 °F - 37.8 °F 45% 30.09 in 10.0 mi South 15.0 mph 21.9 mph N/A   Clear
2:35 PM 59.2 °F - 37.2 °F 44% 30.08 in 10.0 mi SSE 15.0 mph 21.9 mph N/A   Clear
2:55 PM 59.9 °F - 37.8 °F 44% 30.07 in 10.0 mi SSE 16.1 mph 20.7 mph N/A   Clear
3:15 PM 60.1 °F - 37.4 °F 43% 30.06 in 10.0 mi SSE 15.0 mph 19.6 mph N/A   Clear
3:35 PM 60.8 °F - 37.0 °F 41% 30.06 in 10.0 mi South 16.1 mph 23.0 mph N/A   Clear
3:55 PM 61.2 °F - 37.6 °F 42% 30.04 in 10.0 mi South 15.0 mph 23.0 mph N/A   Clear
4:15 PM 61.9 °F - 37.6 °F 41% 30.04 in 10.0 mi South 16.1 mph 20.7 mph N/A   Clear
4:35 PM 61.2 °F - 38.1 °F 42% 30.03 in 10.0 mi South 13.8 mph 18.4 mph N/A   Clear
4:55 PM 61.2 °F - 38.3 °F 43% 30.02 in 10.0 mi SSE 13.8 mph 20.7 mph N/A   Clear
5:15 PM 61.2 °F - 37.9 °F 42% 30.01 in 10.0 mi SSE 12.7 mph 18.4 mph N/A   Clear
5:35 PM 60.4 °F - 38.1 °F 44% 30.00 in 10.0 mi SSE 12.7 mph 17.3 mph N/A   Clear
5:55 PM 59.7 °F - 39.9 °F 48% 30.00 in 10.0 mi SSE 11.5 mph 17.3 mph N/A   Clear
6:15 PM 58.5 °F - 39.6 °F 49% 30.00 in 10.0 mi SSE 10.4 mph - N/A   Clear
6:35 PM 58.1 °F - 40.1 °F 51% 29.99 in 10.0 mi SSE 11.5 mph - N/A   Clear
6:55 PM 56.3 °F - 40.1 °F 55% 29.99 in 10.0 mi SSE 6.9 mph - N/A   Clear
7:15 PM 54.0 °F - 39.9 °F 59% 29.99 in 10.0 mi SSE 8.1 mph - N/A   Clear
7:35 PM 52.9 °F - 39.0 °F 59% 29.98 in 10.0 mi SE 8.1 mph - N/A   Clear
7:55 PM 52.3 °F - 38.8 °F 60% 29.98 in 10.0 mi SE 8.1 mph - N/A   Clear
8:15 PM 52.7 °F - 40.8 °F 64% 29.98 in 10.0 mi SE 9.2 mph - N/A   Clear
8:35 PM 51.8 °F - 40.5 °F 65% 29.98 in 10.0 mi SE 8.1 mph 17.3 mph N/A   Clear
8:55 PM 51.4 °F - 40.3 °F 66% 29.98 in 10.0 mi SE 10.4 mph 16.1 mph N/A   Clear
9:15 PM 51.4 °F - 40.1 °F 65% 29.97 in 10.0 mi SE 10.4 mph 20.7 mph N/A   Clear
9:35 PM 51.1 °F - 40.1 °F 66% 29.97 in 10.0 mi SE 11.5 mph 18.4 mph N/A   Clear
9:55 PM 50.2 °F - 39.7 °F 67% 29.98 in 10.0 mi SSE 11.5 mph 16.1 mph N/A   Clear
10:15 PM 50.0 °F - 39.6 °F 67% 29.97 in 10.0 mi SSE 10.4 mph 17.3 mph N/A   Clear
10:35 PM 49.6 °F - 39.2 °F 67% 29.97 in 10.0 mi SSE 10.4 mph 16.1 mph N/A   Clear
10:55 PM 49.3 °F - 39.2 °F 68% 29.97 in 10.0 mi SSE 9.2 mph - N/A   Clear
11:15 PM 48.9 °F - 39.2 °F 69% 29.97 in 10.0 mi SSE 9.2 mph 17.3 mph N/A   Clear
11:35 PM 48.2 °F - 39.2 °F 71% 29.98 in 10.0 mi SSE 10.4 mph 16.1 mph N/A   Clear
11:55 PM 47.8 °F - 38.8 °F 71% 29.97 in 10.0 mi SSE 10.4 mph 16.1 mph N/A   Clear